Weather History for Rayong, Thailand

Change the Weather History Date:

Wednesday, March 27, 2013

  Actual Average Record
Temperature  
Mean Temperature 86 °F -  
Max Temperature 91 °F 89 °F 93 °F (2004)
Min Temperature 80 °F 78 °F 73 °F (1997)
Cooling Degree Days 20    
Growing Degree Days 36 (Base 50)    
Moisture  
Dew Point 76 °F    
Average Humidity 72    
Maximum Humidity 84    
Minimum Humidity 59    
Precipitation  
Precipitation 0.00 in - - ()
Sea Level Pressure  
Sea Level Pressure 29.77 in    
Wind  
Wind Speed 6 mph ()    
Max Wind Speed 12 mph    
Max Gust Speed -    
Visibility 2.6 miles    
Events      
Averages and records for this station are not official NWS values.
T = Trace of Precipitation, MM = Missing Value Source: Averaged Metar Reports

Daily Weather History Graph

Daily Weather History Graph

Search for Another Location

Airport:

Trip Planner

Search our weather history database for the weather conditions in past years. The results will help you decide how hot, cold, wet, or windy it might be!

Date:

Astronomy

Mar. 27, 2013 Rise Set
Actual Time 6:15 AM ICT 6:27 PM ICT
Civil Twilight 5:54 AM ICT 6:48 PM ICT
Nautical Twilight 5:29 AM ICT 7:13 PM ICT
Astronomical Twilight 5:05 AM ICT 7:37 PM ICT
Moon 6:26 PM ICT (3/27) 5:50 AM ICT (3/27)
Length of Visible Light 12h 53m
Length of Day
12h 11m
Full, 100% of the Moon is Illuminated
Mar 27
Full
Mar 27
Full
Apr 3
Last Quarter
Apr 10
New
Apr 18
First Quarter

Hourly Weather History & Observations

Time (ICT) Temp. Heat Index Dew Point Humidity Pressure Visibility Wind Dir Wind Speed Gust Speed Precip Events Conditions
12:00 AM 84.2 °F 92.3 °F 75.2 °F 74% 29.77 in 1.9 mi SSW 5.8 mph - N/A   Scattered Clouds
12:30 AM 82.4 °F 89.5 °F 75.2 °F 79% 29.77 in 1.9 mi SSW 4.6 mph - N/A   Scattered Clouds
1:00 AM 82.4 °F 89.5 °F 75.2 °F 79% 29.77 in 1.9 mi South 4.6 mph - N/A   Scattered Clouds
1:30 AM 84.2 °F 92.3 °F 75.2 °F 74% 29.77 in 1.9 mi SSE 4.6 mph - N/A   Scattered Clouds
2:00 AM 84.2 °F 92.3 °F 75.2 °F 74% 29.74 in 1.9 mi South 5.8 mph - N/A   Scattered Clouds
2:30 AM 84.2 °F 90.9 °F 73.4 °F 70% 29.74 in 1.9 mi SSE 5.8 mph - N/A   Scattered Clouds
3:00 AM 84.2 °F 90.9 °F 73.4 °F 70% 29.74 in 1.9 mi South 6.9 mph - N/A   Scattered Clouds
3:30 AM 82.4 °F 89.5 °F 75.2 °F 79% 29.71 in 1.9 mi South 6.9 mph - N/A   Scattered Clouds
4:30 AM 80.6 °F 86.2 °F 75.2 °F 84% 29.74 in 1.9 mi SW 4.6 mph - N/A   Scattered Clouds
5:30 AM 82.4 °F 89.5 °F 75.2 °F 79% 29.74 in 1.9 mi South 4.6 mph - N/A   Scattered Clouds
6:00 AM 82.4 °F 89.5 °F 75.2 °F 79% 29.74 in 2.5 mi South 4.6 mph - N/A   Scattered Clouds
6:30 AM 82.4 °F 89.5 °F 75.2 °F 79% 29.77 in 2.5 mi South 4.6 mph - N/A   Scattered Clouds
7:00 AM 82.4 °F 89.5 °F 75.2 °F 79% 29.77 in 2.5 mi South 4.6 mph - N/A   Scattered Clouds
7:30 AM 82.4 °F 89.5 °F 75.2 °F 79% 29.80 in 2.5 mi SSW 4.6 mph - N/A   Scattered Clouds
8:00 AM 84.2 °F 92.3 °F 75.2 °F 74% 29.80 in 2.5 mi South 6.9 mph - N/A   Scattered Clouds
8:30 AM 87.8 °F 97.6 °F 75.2 °F 66% 29.83 in 2.5 mi South 9.2 mph - N/A   Scattered Clouds
9:00 AM 87.8 °F 97.6 °F 75.2 °F 66% 29.83 in 2.5 mi South 9.2 mph - N/A   Scattered Clouds
9:30 AM 87.8 °F 97.6 °F 75.2 °F 66% 29.86 in 2.5 mi South 9.2 mph - N/A   Scattered Clouds
10:00 AM 89.6 °F 99.8 °F 75.2 °F 62% 29.86 in 2.5 mi South 9.2 mph - N/A   Haze
10:30 AM 89.6 °F 99.8 °F 75.2 °F 62% 29.86 in 2.5 mi South 11.5 mph - N/A   Scattered Clouds
11:00 AM 91.4 °F 102.5 °F 75.2 °F 59% 29.86 in 2.5 mi South 11.5 mph - N/A   Haze
11:30 AM 91.4 °F 105.1 °F 77.0 °F 63% 29.83 in 2.5 mi South 11.5 mph - N/A   Haze
12:00 PM 91.4 °F 105.1 °F 77.0 °F 63% 29.83 in 2.5 mi SSE 9.2 mph - N/A   Haze
12:30 PM 91.4 °F 105.1 °F 77.0 °F 63% 29.80 in 2.5 mi South 11.5 mph - N/A   Haze
1:00 PM 91.4 °F 105.1 °F 77.0 °F 63% 29.80 in 3.1 mi South 9.2 mph - N/A   Haze
1:30 PM 91.4 °F 105.1 °F 77.0 °F 63% 29.77 in 3.1 mi SSW 6.9 mph - N/A   Haze
2:00 PM 91.4 °F 102.5 °F 75.2 °F 59% 29.77 in 3.1 mi South 6.9 mph - N/A   Haze
2:30 PM 91.4 °F 105.1 °F 77.0 °F 63% 29.74 in 3.1 mi SSW 9.2 mph - N/A   Haze
3:00 PM 89.6 °F 102.2 °F 77.0 °F 66% 29.74 in 3.1 mi SSW 9.2 mph - N/A   Haze
3:30 PM 89.6 °F 99.8 °F 75.2 °F 62% 29.71 in 3.1 mi SSW 9.2 mph - N/A   Haze
4:00 PM 89.6 °F 99.8 °F 75.2 °F 62% 29.71 in 3.1 mi South 9.2 mph - N/A   Haze
4:30 PM 89.6 °F 102.2 °F 77.0 °F 66% 29.71 in 3.1 mi South 9.2 mph - N/A   Scattered Clouds
5:00 PM 89.6 °F 102.2 °F 77.0 °F 66% 29.71 in 3.1 mi SSW 6.9 mph - N/A   Scattered Clouds
5:30 PM 87.8 °F 99.7 °F 77.0 °F 70% 29.71 in 3.1 mi SSW 9.2 mph - N/A   Scattered Clouds
6:00 PM 87.8 °F 99.7 °F 77.0 °F 70% 29.71 in 3.1 mi SSW 4.6 mph - N/A   Scattered Clouds
6:30 PM 86.0 °F 96.9 °F 77.0 °F 74% 29.71 in 3.1 mi South 4.6 mph - N/A   Scattered Clouds
7:00 PM 86.0 °F 96.9 °F 77.0 °F 74% 29.74 in 3.1 mi SSW 4.6 mph - N/A   Scattered Clouds
7:30 PM 86.0 °F 96.9 °F 77.0 °F 74% 29.74 in 3.1 mi SSW 4.6 mph - N/A   Scattered Clouds
8:00 PM 86.0 °F 96.9 °F 77.0 °F 74% 29.74 in 3.1 mi South 3.5 mph - N/A   Scattered Clouds
8:30 PM 86.0 °F 99.3 °F 78.8 °F 79% 29.74 in 3.1 mi South 6.9 mph - N/A   Scattered Clouds
9:00 PM 86.0 °F 99.3 °F 78.8 °F 79% 29.77 in 3.1 mi South 6.9 mph - N/A   Scattered Clouds
9:30 PM 86.0 °F 99.3 °F 78.8 °F 79% 29.77 in 3.1 mi SSW 4.6 mph - N/A   Scattered Clouds
10:00 PM 86.0 °F 99.3 °F 78.8 °F 79% 29.77 in 3.1 mi SSW 4.6 mph - N/A   Mostly Cloudy
10:30 PM 86.0 °F 99.3 °F 78.8 °F 79% 29.80 in 3.1 mi SSW 4.6 mph - N/A   Scattered Clouds
11:00 PM 84.2 °F 96.1 °F 78.8 °F 84% 29.80 in 2.5 mi SW 6.9 mph - N/A   Mostly Cloudy
11:30 PM 84.2 °F 96.1 °F 78.8 °F 84% 29.80 in 2.5 mi SSW 6.9 mph - N/A   Mostly Cloudy